GW6925 Weather Reports


Display with metric or nautical units.
time (UTC)temp
F
wind
direction
speed
MPH
gust
MPH
rain 1hr
in
rain 24hr
in
rain mn
in
humidity
%
barometer
mb
20260504233028 61 284 2.0 8.0 0.00 0.00 0.00 48 1008.9
20260504232608 62 34 5.0 10.0 0.00 0.00 0.00 39 1009.1
20260504232106 62 20 5.0 10.0 0.00 0.00 0.00 39 1009.1
20260504231601 62 10 4.0 11.0 0.00 0.00 0.00 38 1009.1
20260504231528 62 254 1.0 9.0 0.00 0.00 0.00 46 1008.8
20260504231100 62 0 4.0 15.0 0.00 0.00 0.00 38 1009.2
20260504230559 63 0 6.0 15.0 0.00 0.00 0.00 37 1009.2
20260504230106 63 71 6.0 13.0 0.00 0.00 0.00 38 1009.2
20260504230018 63 300 3.0 16.0 0.00 0.00 0.00 45 1008.7
20260504225551 63 49 6.0 14.0 0.00 0.00 0.00 37 1008.9
20260504225049 64 328 6.0 14.0 0.00 0.00 0.00 37 1008.9
20260504224538 64 30 6.0 14.0 0.00 0.00 0.00 36 1008.9
20260504224532 63 304 4.0 11.0 0.00 0.00 0.00 44 1008.4
20260504224038 64 344 7.0 18.0 0.00 0.00 0.00 37 1008.8
20260504223537 64 54 6.0 18.0 0.00 0.00 0.00 36 1008.8
20260504223035 64 329 6.0 13.0 0.00 0.00 0.00 36 1008.8
20260504223025 64 154 3.0 12.0 0.00 0.00 0.00 44 1008.3
20260504222530 64 7 7.0 14.0 0.00 0.00 0.00 34 1008.8
20260504222029 65 21 7.0 22.0 0.00 0.00 0.00 34 1008.8
20260504221527 65 35 7.0 22.0 0.00 0.00 0.00 34 1008.8
20260504221021 66 23 7.0 22.0 0.00 0.00 0.00 33 1008.7
20260504220520 66 42 6.0 20.0 0.00 0.00 0.00 32 1008.7
20260504220028 66 157 5.0 15.0 0.00 0.00 0.00 41 1008.0
20260504215517 67 0 7.0 14.0 0.00 0.00 0.00 32 1008.6
20260504215015 67 25 7.0 17.0 0.00 0.00 0.00 30 1008.6
20260504214524 67 178 3.0 18.0 0.00 0.00 0.00 39 1008.0
20260504214513 67 48 8.0 17.0 0.00 0.00 0.00 30 1008.6
20260504214007 67 11 7.0 17.0 0.00 0.00 0.00 30 1008.6
20260504213455 67 342 7.0 20.0 0.00 0.00 0.00 30 1008.6
20260504213026 67 170 5.0 19.0 0.00 0.00 0.00 37 1007.9
20260504212943 68 55 7.0 20.0 0.00 0.00 0.00 29 1008.6
20260504212431 68 51 6.0 15.0 0.00 0.00 0.00 29 1008.4
20260504211527 67 182 4.0 16.0 0.00 0.00 0.00 37 1007.8
20260504210929 68 0 7.0 16.0 0.00 0.00 0.00 29 1008.3
20260504210426 68 10 7.0 17.0 0.00 0.00 0.00 27 1008.3
20260504210037 68 140 4.0 12.0 0.00 0.00 0.00 36 1007.7
20260504205924 68 347 8.0 17.0 0.00 0.00 0.00 27 1008.3
20260504205421 69 35 7.0 15.0 0.00 0.00 0.00 28 1008.2
20260504204919 69 48 7.0 14.0 0.00 0.00 0.00 26 1008.2
20260504204529 69 261 2.0 13.0 0.00 0.00 0.00 36 1007.8
20260504204417 69 23 7.0 15.0 0.00 0.00 0.00 27 1008.2
20260504203913 69 350 7.0 15.0 0.00 0.00 0.00 27 1008.3
20260504203413 69 64 6.0 13.0 0.00 0.00 0.00 25 1008.3
20260504203026 70 285 5.0 20.0 0.00 0.00 0.00 32 1007.8
20260504202912 70 49 5.0 13.0 0.00 0.00 0.00 24 1008.3
20260504202407 70 106 6.0 11.0 0.00 0.00 0.00 26 1008.2
20260504201905 70 18 6.0 11.0 0.00 0.00 0.00 26 1008.2
20260504201508 70 132 4.0 11.0 0.00 0.00 0.00 30 1007.6
20260504201404 70 13 6.0 16.0 0.00 0.00 0.00 24 1008.2
20260504200901 70 89 6.0 16.0 0.00 0.00 0.00 25 1008.2
20260504200357 70 304 7.0 16.0 0.00 0.00 0.00 25 1008.2
20260504200011 70 352 3.0 16.0 0.00 0.00 0.00 32 1007.8
20260504195857 70 0 7.0 16.0 0.00 0.00 0.00 24 1008.2
20260504195355 70 66 6.0 15.0 0.00 0.00 0.00 25 1008.2
20260504194852 69 27 6.0 11.0 0.00 0.00 0.00 25 1008.2
20260504194515 69 205 5.0 17.0 0.00 0.00 0.00 31 1007.8
20260504194350 69 56 6.0 20.0 0.00 0.00 0.00 24 1008.2
20260504193846 69 329 7.0 17.0 0.00 0.00 0.00 25 1008.3
20260504193335 69 37 8.0 15.0 0.00 0.00 0.00 25 1008.3
20260504193021 70 273 5.0 12.0 0.00 0.00 0.00 30 1007.9
20260504192831 70 34 6.0 15.0 0.00 0.00 0.00 23 1008.3
20260504192327 70 51 6.0 13.0 0.00 0.00 0.00 24 1008.3
20260504191825 70 0 6.0 13.0 0.00 0.00 0.00 26 1008.3
20260504191506 69 165 7.0 15.0 0.00 0.00 0.00 32 1007.8
20260504191322 69 45 7.0 15.0 0.00 0.00 0.00 24 1008.3
20260504190821 70 346 5.0 15.0 0.00 0.00 0.00 23 1008.3
20260504190317 70 4 5.0 13.0 0.00 0.00 0.00 25 1008.3
20260504190009 70 248 4.0 13.0 0.00 0.00 0.00 31 1007.9
20260504185311 70 73 6.0 13.0 0.00 0.00 0.00 25 1008.6
20260504184809 69 23 5.0 13.0 0.00 0.00 0.00 24 1008.6
20260504184513 69 117 5.0 12.0 0.00 0.00 0.00 31 1008.0
20260504184309 70 72 4.0 13.0 0.00 0.00 0.00 23 1008.8
20260504183808 69 347 5.0 17.0 0.00 0.00 0.00 24 1008.8
20260504183307 69 65 6.0 17.0 0.00 0.00 0.00 24 1008.8
20260504183017 69 140 3.0 13.0 0.00 0.00 0.00 33 1008.3
20260504182258 68 342 8.0 23.0 0.00 0.00 0.00 24 1008.8
20260504181758 69 16 7.0 17.0 0.00 0.00 0.00 25 1008.8
20260504181522 69 238 6.0 13.0 0.00 0.00 0.00 35 1008.3
20260504180757 69 11 5.0 13.0 0.00 0.00 0.00 24 1009.0
20260504180251 69 1 6.0 15.0 0.00 0.00 0.00 24 1009.0
20260504180007 69 175 7.0 16.0 0.00 0.00 0.00 32 1008.5
20260504175749 68 16 8.0 20.0 0.00 0.00 0.00 25 1009.3
20260504175249 68 73 8.0 20.0 0.00 0.00 0.00 24 1009.3
20260504174745 68 0 8.0 17.0 0.00 0.00 0.00 24 1009.3
20260504174510 69 294 3.0 16.0 0.00 0.00 0.00 30 1008.7
20260504174241 68 110 9.0 22.0 0.00 0.00 0.00 23 1009.0
20260504173737 68 75 10.0 22.0 0.00 0.00 0.00 25 1009.0
20260504173237 67 0 8.0 15.0 0.00 0.00 0.00 24 1009.0
20260504173018 68 53 4.0 17.0 0.00 0.00 0.00 30 1008.4
20260504172735 67 68 7.0 17.0 0.00 0.00 0.00 25 1009.2
20260504171729 67 44 7.0 14.0 0.00 0.00 0.00 25 1009.2
20260504171523 68 86 4.0 15.0 0.00 0.00 0.00 31 1008.6
20260504171230 67 14 7.0 17.0 0.00 0.00 0.00 24 1009.3
20260504170729 67 25 8.0 20.0 0.00 0.00 0.00 26 1009.3
20260504170223 66 24 9.0 20.0 0.00 0.00 0.00 24 1009.3
20260504150545 63 48 7.0 17.0 0.00 0.00 0.00 26 1010.7
20260504140929 61 16 7.0 14.0 0.00 0.00 0.00 32 1011.2
20260504140428 61 58 5.0 13.0 0.00 0.00 0.00 31 1011.2
20260504130340 57 17 4.0 13.0 0.00 0.00 0.00 38 1011.8
20260504120258 51 6 5.0 13.0 0.00 0.00 0.00 45 1012.1
20260504110628 38 99 0.0 2.0 0.00 0.00 0.00 75 1012.2
20260504110110 37 119 0.0 0.0 0.00 0.00 0.00 80 1012.2
20260504100334 33 119 0.0 0.0 0.00 0.00 0.00 82 1012.0
20260504081521 35 344 0.0 0.0 0.00 0.00 0.00 88 1011.0
20260504081314 36 119 0.0 0.0 0.00 0.00 0.00 76 1011.5
20260504080759 36 119 0.0 0.0 0.00 0.00 0.00 77 1011.5
20260504060158 34 119 0.0 0.0 0.00 0.00 0.00 77 1011.5
20260504050430 34 119 0.0 0.0 0.00 0.00 0.00 74 1011.7
20260504050020 33 344 0.0 0.0 0.00 0.00 0.00 87 1010.7
20260504045915 34 119 0.0 0.0 0.00 0.00 0.00 74 1011.7
20260504045404 34 119 0.0 0.0 0.00 0.00 0.00 74 1011.9
20260504044901 34 119 0.0 0.0 0.00 0.00 0.00 73 1011.9
20260504044524 33 344 0.0 0.0 0.00 0.00 0.00 85 1010.9
20260504044355 34 119 0.0 0.0 0.00 0.00 0.00 73 1011.9
20260504043851 34 119 0.0 0.0 0.00 0.00 0.00 73 1011.7
20260504043344 34 119 0.0 0.0 0.00 0.00 0.00 73 1011.7
20260504043028 33 344 0.0 0.0 0.00 0.00 0.00 85 1010.8
20260504042818 34 119 0.0 0.0 0.00 0.00 0.00 74 1011.6
20260504042308 34 119 0.0 0.0 0.00 0.00 0.00 73 1011.6
20260504041731 34 119 0.0 0.0 0.00 0.00 0.00 73 1011.6
20260504041539 33 344 0.0 0.0 0.00 0.00 0.00 85 1010.7
20260504041202 34 119 0.0 0.0 0.00 0.00 0.00 73 1011.5
20260504040658 34 119 0.0 0.0 0.00 0.00 0.00 73 1011.5
20260504040134 34 119 0.0 0.0 0.00 0.00 0.00 72 1011.5
20260504040021 33 344 0.0 0.0 0.00 0.00 0.00 86 1010.7
20260504035636 34 119 0.0 0.0 0.00 0.00 0.00 71 1011.5
20260504035119 34 119 0.0 0.0 0.00 0.00 0.00 71 1011.5
20260504034603 34 119 0.0 0.0 0.00 0.00 0.00 71 1011.5
20260504034522 33 344 0.0 0.0 0.00 0.00 0.00 84 1010.6
20260504034059 34 119 0.0 0.0 0.00 0.00 0.00 71 1011.5
20260504033543 34 119 0.0 0.0 0.00 0.00 0.00 70 1011.5
20260504033033 34 119 0.0 0.0 0.00 0.00 0.00 71 1011.5
20260504033026 33 344 0.0 0.0 0.00 0.00 0.00 83 1010.6
20260504032009 34 119 0.0 0.0 0.00 0.00 0.00 70 1011.4
20260504031528 33 344 0.0 0.0 0.00 0.00 0.00 84 1010.6
20260504031435 34 119 0.0 0.0 0.00 0.00 0.00 70 1011.4
20260504030917 34 119 0.0 0.0 0.00 0.00 0.00 69 1011.2
20260504030338 35 119 0.0 0.0 0.00 0.00 0.00 70 1011.2
20260504030029 34 344 0.0 2.0 0.00 0.00 0.00 84 1010.4
20260504025837 35 119 0.0 0.0 0.00 0.00 0.00 70 1011.1
20260504025333 35 119 0.0 0.0 0.00 0.00 0.00 69 1011.1
20260504024807 35 119 0.0 0.0 0.00 0.00 0.00 69 1011.1
20260504024517 33 344 0.0 0.0 0.00 0.00 0.00 85 1010.3
20260504024242 35 119 0.0 0.0 0.00 0.00 0.00 69 1011.0
20260504023733 35 119 0.0 0.0 0.00 0.00 0.00 69 1011.0
20260504023228 35 119 0.0 0.0 0.00 0.00 0.00 69 1011.0
20260504023022 33 344 0.0 0.0 0.00 0.00 0.00 84 1010.3
20260504022705 35 119 0.0 0.0 0.00 0.00 0.00 69 1011.0
20260504022130 35 119 0.0 0.0 0.00 0.00 0.00 69 1011.0
20260504021627 36 119 0.0 0.0 0.00 0.00 0.00 68 1011.0
20260504021523 34 344 0.0 0.0 0.00 0.00 0.00 82 1010.1
20260504021055 36 119 0.0 0.0 0.00 0.00 0.00 66 1010.9
20260504020538 36 119 0.0 0.0 0.00 0.00 0.00 66 1010.9
20260504020036 34 344 0.0 0.0 0.00 0.00 0.00 79 1010.1
20260504020012 36 119 0.0 0.0 0.00 0.00 0.00 64 1010.9
20260504015500 37 119 0.0 0.0 0.00 0.00 0.00 63 1010.9
20260504014941 37 119 0.0 0.0 0.00 0.00 0.00 63 1010.9
20260504014532 35 344 0.0 0.0 0.00 0.00 0.00 78 1009.9
20260504014436 37 119 0.0 0.0 0.00 0.00 0.00 62 1010.9
20260504013021 36 344 0.0 0.0 0.00 0.00 0.00 75 1009.8
20260504012842 38 119 0.0 0.0 0.00 0.00 0.00 59 1010.5
20260504012300 38 119 0.0 0.0 0.00 0.00 0.00 58 1010.5
20260504011721 39 119 0.0 0.0 0.00 0.00 0.00 57 1010.5
20260504011525 36 344 0.0 0.0 0.00 0.00 0.00 73 1009.6
20260504011218 39 119 0.0 0.0 0.00 0.00 0.00 55 1010.2
20260504010717 40 119 0.0 0.0 0.00 0.00 0.00 54 1010.2
20260504010024 37 344 0.0 0.0 0.00 0.00 0.00 73 1009.4
20260504005649 40 119 0.0 0.0 0.00 0.00 0.00 54 1010.0
20260504005114 41 119 0.0 0.0 0.00 0.00 0.00 52 1010.0
20260504004528 38 344 0.0 0.0 0.00 0.00 0.00 68 1009.3
20260504004057 42 119 0.0 0.0 0.00 0.00 0.00 50 1009.9
20260504003522 43 119 0.0 0.0 0.00 0.00 0.00 49 1009.9
20260504003029 40 344 0.0 0.0 0.00 0.00 0.00 66 1009.2
20260504002935 43 119 0.0 0.0 0.00 0.00 0.00 47 1009.9
20260504002429 44 119 0.0 0.0 0.00 0.00 0.00 47 1009.6
20260504001900 45 119 0.0 0.0 0.00 0.00 0.00 42 1009.6
20260504001532 41 344 0.0 0.0 0.00 0.00 0.00 65 1008.9
20260504001339 46 119 0.0 0.0 0.00 0.00 0.00 42 1009.6
20260504000811 46 119 0.0 0.0 0.00 0.00 0.00 39 1009.5
20260504000303 47 119 0.0 0.0 0.00 0.00 0.00 39 1009.5
20260504000025 43 344 0.0 2.0 0.00 0.00 0.00 57 1008.9
20260503235251 48 119 0.0 0.0 0.00 0.00 0.00 37 1009.4
20260503234732 49 119 0.0 2.0 0.00 0.00 0.00 34 1009.4
20260503234529 46 344 0.0 2.0 0.00 0.00 0.00 50 1008.8